sat.trackr.live / text

‹ back to catalog

GPS BIIF-11 (PRN 10)

NORAD 41019 · 2015-062A

PAYLOAD ACTIVE UNKNOWN

§ Identity

Operator
Country
US
Launch date
2015-10-31
Launch site
AFETR
Launch vehicle
Mass (kg)
RCS (m²)
15.92

Purposes: earth_obs, nav

External: N2YO · Heavens-Above · Gunter

§ Orbital elements

Epoch: 2026-05-24T20:15:26.561088Z

Period
717.96 min
Inclination
56.9441°
Eccentricity
0.0111404
Mean motion
2.00567019 rev/d
Perigee alt
19,886.0 km
Apogee alt
20,477.8 km
Semi-major
26,560.0 km
B*
0.0000e+0
RAAN
31.7103°
Arg perigee
231.2784°
Mean anomaly
127.7540°
Rev number
7,736

§ Raw data

GPS BIIF-11 (PRN 10)1 41019U 15062A   26144.84405742 -.00000106  00000+0  00000+0 0  99962 41019  56.9441  31.7103 0111404 231.2784 127.7540  2.00567019 77368

JSON: /api/v1/satellites/41019 · /tle

For live sub-satellite position, see the globe view (requires WebGL).

§ Visibility from observer

Set your observer location to see the next 7 days of passes ≥ 10°. The values pass through the URL so the page stays shareable.

No JS? Fill the form by hand. The geolocation button needs JavaScript.